Regional Weather Roundup
Issued by NWS Little Rock, AR

Home | Current Version | Previous Version | Graphics & Text | Print | Product List | Glossary On
Versions: 1 2 3 4 5 6 7 8 9 10 11 12 13 14 15 16 17 18 19 20 21 22 23 24 25 26 27
000
ASUS44 KLZK 261305
RWRLZK

WEATHER ROUNDUP FOR ARKANSAS
NATIONAL WEATHER SERVICE LITTLE ROCK AR
800 AM CDT THU MAY 26 2016

NOTE: "FAIR" INDICATES FEW OR NO CLOUDS BELOW 12,000 FEET WITH NO
SIGNIFICANT WEATHER AND/OR OBSTRUCTIONS TO VISIBILITY.

ARZ001-003-010-029-261400-
NORTHWEST ARKANSAS

CITY           SKY/WX    TMP DP  RH WIND       PRES   REMARKS
FAYETTEVILLE   MOSUNNY   76  73  91 S14G22    29.96R
FORT SMITH     CLOUDY    77  71  82 SE5       29.95S
HARRISON       CLOUDY    76  72  87 CALM      30.00R
BENTONVILLE    CLOUDY    75  68  78 SW5       29.98R
ROGERS         PTSUNNY   75  71  87 S7        29.99R
SILOAM SPGS    MOSUNNY   75  64  69 S14G20    29.96S
HIGHFILL       CLOUDY    76  73  91 S10       29.96R
$$

ARZ004-005-016-261400-
NORTH CENTRAL ARKANSAS

CITY           SKY/WX    TMP DP  RH WIND       PRES   REMARKS
BATESVILLE     CLOUDY    75  72  88 S7        30.00S
FLIPPIN        CLOUDY   N/A N/A N/A E3        29.95R
MTN HOME       CLOUDY    74  72  93 SE6       29.98R FOG
$$

ARZ040-041-261400-
WEST CENTRAL ARKANSAS

CITY           SKY/WX    TMP DP  RH WIND       PRES   REMARKS
MENA           MOSUNNY   79  73  83 SW8       29.99F
MOUNT IDA      CLOUDY    77  70  79 VRB3      29.98S
$$

ARZ009-017-025-026-028-261400-
NORTHEAST ARKANSAS

CITY           SKY/WX    TMP DP  RH WIND       PRES   REMARKS
CORNING          N/A     73  73 100 S9        30.02R
JONESBORO      CLOUDY    73  69  87 S9        30.02R
NEWPORT        CLOUDY    74  74 100 S8        30.02R
WALNUT RIDGE   MOSUNNY   73  68  83 S12       30.01R
BLYTHEVILLE    SUNNY     75  69  81 S10       30.04R
$$

ARZ022-023-033-042-044-261400-
CENTRAL ARKANSAS

CITY           SKY/WX    TMP DP  RH WIND       PRES   REMARKS
LITTLE ROCK    CLOUDY    78  71  79 S13       30.01S
N LITTLE ROCK    N/A     75  71  88 SW8G16    29.98S
SEARCY         CLOUDY    75  73  94 S7        30.02R
HOT SPRINGS    CLOUDY    77  71  82 SW7       30.00S
RUSSELLVILLE   SUNNY     78  73  84 VRB3      29.97S
CLINTON        CLOUDY    75  73  94 CALM      29.99R
$$

ARZ036-261400-
EAST ARKANSAS

CITY           SKY/WX    TMP DP  RH WIND       PRES   REMARKS
WEST MEMPHIS   SUNNY     76  71  85 S12       30.04R
$$

ARZ050-053-066-070-073-261400-
SOUTHWEST ARKANSAS

CITY           SKY/WX    TMP DP  RH WIND       PRES   REMARKS
ARKADELPHIA    PTSUNNY   76  76 100 S7        30.01S
CAMDEN         CLOUDY    77  72  83 S8        30.01S
TEXARKANA      CLOUDY    76  72  87 S12G20    29.99S
EL DORADO      CLOUDY    77  73  87 S9        30.03S
DE QUEEN       CLOUDY    77  73  87 S7        29.96F
$$

ARZ056-057-069-261400-
SOUTHEAST ARKANSAS

CITY           SKY/WX    TMP DP  RH WIND       PRES   REMARKS
PINE BLUFF     PTSUNNY   77  72  84 S10       30.03R
STUTTGART      PTSUNNY   77  70  78 S13       30.04R
MONTICELLO     CLOUDY    75  73  93 S9        30.05S FOG

$$






USA.gov is the U.S. government's official web portal to all federal, state and local government web resources and services.